Tracking 30995 objects as of 7-Jul-2025
HD Live streaming from Space Station
objects crossing your sky now

STARLINK-11192

Track STARLINK-11192 now!
10-day predictions
STARLINK-11192 is classified as:


NORAD ID: 60308
Int'l Code: 2024-133H
Perigee: 366.1 km
Apogee: 367.6 km
Inclination: 53.2 °
Period: 91.7 minutes
Semi major axis: 6737 km
RCS: Unknown
Launch date: July 28, 2024
Source: United States (US)
Launch site: AIR FORCE WESTERN TEST RANGE (AFWTR)
Your satellite tracking list
Your tracking list is empty




NASA's NSSDC Master Catalog

Two Line Element Set (TLE):
1 60308U 24133H   25187.65783473 -.00001899  00000-0 -10813-4 0  9992
2 60308  53.1591 278.9502 0001150  57.3357 302.7772 15.69717794 55142
Source of the keplerian elements: AFSPC